YAOGAN-30 W (46809 NORAD) Tracking and Keplerian Element Data

This shows tracking and keplerian element data for the satellite.

Feedback or suggestion? Click here.




ElementValue
Catalog46809
NameYAOGAN-30 W
Epoch Orbit529
Epoch Day336.18909191
Epoch Year2020
RAAN28.2515
Inclination34.9987
Eccentricity0.0007154
Argument of Perigee216.8625
Mean Anonmoly143.1596
Mean Motion14.89830146
Decay Rate3.86E-06
L11 46809U 20076C 20336.18909191 .00000386 00000-0 42191-4 0 9992
L22 46809 34.9987 28.2515 0007154 216.8625 143.1596 14.89830146 5298

Live tracking and technical data element details for YAOGAN-30 W (NORAD 46809). YAOGAN-30 W can be tracked NOW for your location showing map with azimuth and elevation plus other details from your city location.

Track the satellite on the map from your city or location and see movement details for azimuth, elevation, latitude, longitude, range, height, and movement on the map or in text.







IsCatalogInMostPopularTable: catalog: 46809, numindb: 10
Update: records affected: 1



GetName: 46809 YAOGAN-30 W

Hit Count: updated at: Tue, 01 Dec 2020 20:33:53 GMT